User: anonymous   Login
Location: Unspecified
(0.0000°N, 0.0000°E)
Time: 07:28:59
(UTC+00:00)
Language:

Sedsat-1 - Orbit

View from above orbital plane
View from above orbital plane
View from above satellite
View from above satellite

Ground track
Ground track

The orbit data is extracted from the following two-line orbital elements,

1 25509U 98061B   19082.88920031 +.00000117 +00000-0 +85459-5 0  9991
2 25509 031.4352 007.9640 0346982 259.6593 096.4746 14.30365996066990
Epoch (UTC): 23 March 2019 21:20:26
Eccentricity: 0.0346982
inclination: 31.4352°
perigee height: 542 km
apogee height: 1039 km
right ascension of ascending node: 7.9640°
argument of perigee: 259.6593°
revolutions per day: 14.30365996
mean anomaly at epoch: 96.4746°
orbit number at epoch: 6699

The dashed part of the orbit path shows where the satellite is in the earth's shadow,  

DLR